User: anonymous   Login
Location: Fort Wayne
(41.1310°N, 85.1290°W)
Time: 16:23:53
(UTC-04:00)
Language:

Meteor 2-9 Rocket - Orbit

View from above orbital plane
View from above orbital plane
View from above satellite
View from above satellite

Ground track
Ground track

The orbit data is extracted from the following two-line orbital elements,

1 13719U 82116B   16205.90754911 +.00000059 +00000-0 +23531-4 0  9991
2 13719 081.2565 321.9490 0071372 208.4114 292.0184 14.14585526733952
Epoch (UTC): 23 July 2016 21:46:52
Eccentricity: 0.0071372
inclination: 81.2565°
perigee height: 792 km
apogee height: 895 km
right ascension of ascending node: 321.9490°
argument of perigee: 208.4114°
revolutions per day: 14.14585526
mean anomaly at epoch: 292.0184°
orbit number at epoch: 73395

The dashed part of the orbit path shows where the satellite is in the earth's shadow,  

DLR